Flag for France Weather past 2 weeks in Rouen, France

Now
64 °F

Partly sunny.


Feels Like: 64 °F
Forecast: 48 / 64 °F
Wind: 9 mph from North

Location: Rouen Airport

Current Time: Sep 2, 2015 at 5:05:28 PM

Latest Report: Sep 2, 2015 at 4:30 PM


Visibility: N/A

Pressure: 30.04 "Hg

Humidity: 60%

Dew point: 50 °F

Location of RouenLocation

Historic Weather in Rouen — Graph

°F

Rouen temperature yesterday

Maximum temperature yesterday: 66 °F (at 4:00 PM)
Minimum temperature yesterday: 52 °F (at 11:00 PM)
Average temperature yesterday: 61 °F

Past Weeks' High & Low Weather Summary

 TemperatureHumidityPressure
High86 °F (Aug 22, 3:00 PM)100% (Aug 20, 7:00 AM)30.21 "Hg (Aug 20, 7:00 AM)
Low48 °F (Sep 2, 1:30 AM)33% (Aug 22, 6:00 PM)29.36 "Hg (Aug 24, 1:00 PM)
Average65 °F79%29.95 "Hg
* Reported Aug 18 4:00 PM — Sep 2 4:00 PM, Rouen, Weather by CustomWeather, © 2015

Note: Actual official high and low records may vary slightly from our data, if they occured in-between our weather recording intervals... More about our weather records

Advertising

Rouen weather history for previous 24 hours

 ConditionsComfort  
Time TempWeatherWind HumidityBarometerVisibility
4:00 PM
Wed, Sep 2
64 °FScattered clouds.10 mph64%30.04 "HgN/A
3:30 PM63 °FPartly sunny.13 mph64%30.04 "HgN/A
3:00 PM64 °FPassing clouds.9 mph60%30.04 "HgN/A
2:30 PM64 °FMild.13 mph68%30.04 "HgN/A
2:00 PM63 °FBroken clouds.7 mph77%30.07 "HgN/A
1:30 PM64 °FMostly cloudy.7 mph73%30.07 "HgN/A
1:00 PM61 °FCool.5 mph83%30.07 "HgN/A
12:30 PM57 °FCool.3 mph88%30.07 "HgN/A
12:00 PM55 °FLight rain. Fog.12 mph88%30.09 "Hg2 mi
11:30 AM64 °FMild.5 mph78%30.07 "HgN/A
11:00 AM59 °FCool.6 mph82%30.07 "HgN/A
10:30 AM57 °FSunny.2 mph88%30.07 "Hg10 mi
10:00 AM55 °FSunny.5 mph94%30.07 "Hg10 mi
9:30 AM55 °FPassing clouds.6 mph94%30.07 "HgN/A
9:00 AM54 °FPartly sunny.3 mph100%30.07 "HgN/A
8:30 AM54 °FLow clouds.3 mph94%30.07 "HgN/A
8:00 AM52 °FMostly cloudy.5 mph100%30.07 "HgN/A
7:30 AM52 °FMostly cloudy.5 mph94%30.07 "Hg6 mi
7:00 AM50 °FClear.6 mph100%30.07 "Hg6 mi
6:30 AM50 °FClear.5 mph100%30.07 "Hg6 mi
5:30 AM50 °FFog.5 mph94%30.07 "Hg2 mi
5:00 AM50 °FPassing clouds.5 mph94%30.09 "Hg6 mi
4:30 AM48 °FClear.5 mph94%30.09 "Hg5 mi
4:00 AM48 °FPassing clouds.3 mph94%30.09 "Hg5 mi
3:30 AM50 °FPassing clouds.5 mph94%30.09 "HgN/A
3:00 AM50 °FPassing clouds.5 mph94%30.09 "HgN/A
2:30 AM48 °FClear.3 mph94%30.09 "Hg10 mi
2:00 AM50 °FClear.3 mph94%30.12 "Hg10 mi
1:30 AM48 °FClear.3 mph100%30.12 "Hg10 mi
1:00 AM50 °FClear.3 mph94%30.12 "Hg10 mi
11:30 PM
Tue, Sep 1
52 °FClear.2 mph88%30.12 "Hg10 mi
11:00 PM52 °FClear.6 mph82%30.12 "Hg10 mi
10:30 PM54 °FClear.7 mph82%30.12 "Hg10 mi
10:00 PM55 °FClear.5 mph82%30.12 "Hg10 mi
9:30 PM55 °FSunny.3 mph82%30.12 "Hg10 mi
9:00 PM57 °FPassing clouds.6 mph77%30.12 "HgN/A
8:30 PM59 °FPassing clouds.7 mph72%30.09 "HgN/A
8:00 PM61 °FPassing clouds.8 mph68%30.09 "HgN/A
7:30 PM63 °FSunny.8 mph64%30.09 "Hg10 mi
7:00 PM63 °FPassing clouds.9 mph64%30.09 "HgN/A
6:30 PM66 °FScattered clouds.12 mph60%30.09 "HgN/A
6:00 PM66 °FScattered clouds.13 mph64%30.09 "HgN/A
5:30 PM63 °FScattered clouds.12 mph68%30.09 "HgN/A
5:00 PM64 °FScattered clouds.10 mph64%30.09 "HgN/A
Weather by CustomWeather, © 2015

See weather overviewHow to use our weather pages